Fort Belvoir, VA

1:30 PM EDT on July 27, 2017 (GMT -0400)
Davison Army Air Field

Weather History for KDAA - October, 2013

Change the Weather History Date:

Wednesday, October 30, 2013

  Actual Average Record
Temperature  
Mean Temperature 54 °F -  
Max Temperature 63 °F 62 °F 84 °F (1996)
Min Temperature 46 °F 39 °F 28 °F (2008)
Degree Days  
Heating Degree Days 10    
Growing Degree Days 4 (Base 50)    
Moisture  
Dew Point 51 °F    
Average Humidity 96    
Maximum Humidity 100    
Minimum Humidity 73    
Precipitation  
Precipitation 0.00 in - - ()
Sea Level Pressure  
Sea Level Pressure 30.25 in    
Wind  
Wind Speed 1 mph (SE)    
Max Wind Speed 6 mph    
Max Gust Speed -    
Visibility 7 miles    
Events Rain    
Averages and records for this station are not official NWS values.
T = Trace of Precipitation, MM = Missing Value Source: NWS Daily Summary

Daily Weather History Graph

Daily Weather History Graph

Search for Another Location

Airport or City:

Trip Planner

Search our weather history database for the weather conditions in past years. The results will help you decide how hot, cold, wet, or windy it might be!

Date:

Astronomy

Oct. 30, 2013 Rise Set
Actual Time 7:33 AM EDT 6:10 PM EDT
Civil Twilight 7:06 AM EDT 6:37 PM EDT
Nautical Twilight 6:34 AM EDT 7:09 PM EDT
Astronomical Twilight 6:03 AM EDT 7:40 PM EDT
Moon 3:22 AM EDT (10/30) 3:52 PM EDT (10/30)
Length of Visible Light 11h 31m
Length of Day
10h 36m
Waning Crescent, 17% of the Moon is Illuminated
Oct 30
Waning Crescent
Nov 3
New
Nov 10
First Quarter
Nov 17
Full
Nov 25
Last Quarter

Hourly Weather History & Observations

Time (EDT) Temp. Dew Point Humidity Pressure Visibility Wind Dir Wind Speed Gust Speed Precip Events Conditions
12:58 AM 46.0 °F 45.1 °F 97% 30.33 in 10.0 mi Calm Calm - N/A   Overcast
1:58 AM 46.2 °F 45.7 °F 98% 30.33 in 10.0 mi Calm Calm - N/A   Overcast
2:58 AM 46.4 °F 45.7 °F 97% 30.31 in 10.0 mi Calm Calm - N/A   Overcast
3:58 AM 47.1 °F 46.4 °F 97% 30.31 in 10.0 mi North 1.2 mph - N/A   Overcast
4:58 AM 46.8 °F 46.4 °F 99% 30.30 in 10.0 mi Calm Calm - N/A   Mostly Cloudy
5:15 AM 46.4 °F 46.4 °F 100% 30.29 in 10.0 mi Calm Calm - N/A Rain Light Rain
5:25 AM 46.4 °F 46.4 °F 100% 30.28 in 7.0 mi ESE 1.2 mph - N/A Rain Light Rain
5:40 AM 46.4 °F 46.4 °F 100% 30.28 in 10.0 mi Calm Calm - N/A Rain Light Rain
5:41 AM 46.4 °F 46.4 °F 100% 30.28 in 10.0 mi Calm Calm - N/A   Overcast
5:58 AM 47.1 °F 46.8 °F 99% 30.29 in 8.0 mi Calm Calm - 0.00 in   Mostly Cloudy
6:58 AM 48.6 °F 48.4 °F 99% 30.29 in 9.0 mi Calm Calm - N/A   Mostly Cloudy
7:38 AM 48.2 °F 48.2 °F 100% 30.28 in 5.0 mi Calm Calm - N/A   Overcast
7:48 AM 48.2 °F 48.2 °F 100% 30.28 in 5.0 mi Calm Calm - N/A   Overcast
7:58 AM 49.6 °F 49.3 °F 99% 30.29 in 8.0 mi Calm Calm - N/A   Overcast
8:43 AM 50.0 °F 50.0 °F 100% 30.29 in 5.0 mi Calm Calm - N/A   Mostly Cloudy
8:48 AM 51.8 °F 50.0 °F 94% 30.29 in 6.0 mi SSE 2.3 mph - N/A   Mostly Cloudy
8:53 AM 51.8 °F 51.8 °F 100% 30.29 in 6.0 mi SSE 2.3 mph - N/A   Mostly Cloudy
8:54 AM 51.8 °F 51.8 °F 100% 30.29 in 7.0 mi SSE 2.3 mph - N/A Rain Light Rain
8:58 AM 51.3 °F 51.1 °F 99% 30.30 in 6.0 mi SSE 2.3 mph - 0.00 in Rain Light Rain
9:28 AM 51.8 °F 51.8 °F 100% 30.29 in 2.5 mi ESE 2.3 mph - N/A Rain Light Rain
9:33 AM 51.8 °F 51.8 °F 100% 30.29 in 1.2 mi Variable 2.3 mph - N/A Rain Light Rain
9:43 AM 51.8 °F 51.8 °F 100% 30.29 in 4.0 mi SE 4.6 mph - N/A Rain Light Rain
9:44 AM 51.8 °F 51.8 °F 100% 30.29 in 5.0 mi SE 4.6 mph - N/A   Mostly Cloudy
9:58 AM 52.3 °F 52.0 °F 99% 30.29 in 6.0 mi ESE 3.5 mph - 0.00 in   Mostly Cloudy
10:23 AM 53.6 °F 53.6 °F 100% 30.27 in 7.0 mi ESE 4.6 mph - N/A   Mostly Cloudy
10:38 AM 55.4 °F 55.4 °F 100% 30.27 in 10.0 mi Variable 3.5 mph - N/A   Mostly Cloudy
10:48 AM 57.2 °F 55.4 °F 94% 30.26 in 10.0 mi South 4.6 mph - N/A   Scattered Clouds
10:58 AM 57.9 °F 55.9 °F 93% 30.27 in 10.0 mi South 5.8 mph - N/A   Scattered Clouds
11:58 AM 57.2 °F 53.2 °F 87% 30.27 in 10.0 mi Variable 4.6 mph - N/A   Mostly Cloudy
12:58 PM 57.9 °F 53.2 °F 84% 30.25 in 10.0 mi SSW 4.6 mph - N/A   Mostly Cloudy
1:58 PM 59.2 °F 54.0 °F 83% 30.21 in 10.0 mi ESE 3.5 mph - N/A   Mostly Cloudy
2:13 PM 60.8 °F 53.6 °F 77% 30.19 in 10.0 mi Variable 1.2 mph - N/A   Mostly Cloudy
2:23 PM 62.6 °F 55.4 °F 77% 30.19 in 10.0 mi SSE 4.6 mph - N/A   Scattered Clouds
2:58 PM 61.5 °F 54.1 °F 77% 30.19 in 10.0 mi South 4.6 mph - N/A   Scattered Clouds
3:58 PM 63.5 °F 54.9 °F 73% 30.18 in 10.0 mi SSE 4.6 mph - N/A   Clear
4:58 PM 63.5 °F 55.0 °F 74% 30.18 in 10.0 mi Calm Calm - N/A   Clear
5:58 PM 61.2 °F 56.1 °F 83% 30.18 in 10.0 mi Calm Calm - N/A   Clear
6:43 PM 55.4 °F 55.4 °F 100% 30.18 in 9.0 mi Calm Calm - N/A   Clear
6:53 PM 55.4 °F 55.4 °F 100% 30.19 in 10.0 mi Calm Calm - N/A   Clear
6:58 PM 56.3 °F 56.1 °F 99% 30.20 in 10.0 mi Calm Calm - N/A   Clear
7:03 PM 55.4 °F 55.4 °F 100% 30.20 in 9.0 mi Calm Calm - N/A   Clear
7:58 PM 53.8 °F 53.6 °F 99% 30.23 in 5.0 mi Calm Calm - N/A   Mostly Cloudy
8:08 PM 53.6 °F 53.6 °F 100% 30.21 in 5.0 mi ESE 1.2 mph - N/A   Mostly Cloudy
8:23 PM 53.6 °F 51.8 °F 94% 30.21 in 5.0 mi Calm Calm - N/A   Mostly Cloudy
8:33 PM 53.6 °F 51.8 °F 94% 30.20 in 5.0 mi Calm Calm - N/A   Scattered Clouds
8:55 PM 51.8 °F 51.8 °F 100% 30.20 in 2.5 mi Calm Calm - N/A   Clear
8:58 PM 51.8 °F 51.8 °F 100% 30.21 in 4.0 mi Calm Calm - N/A   Scattered Clouds
9:03 PM 53.6 °F 51.8 °F 94% 30.20 in 3.0 mi Calm Calm - N/A   Clear
9:08 PM 53.6 °F 51.8 °F 94% 30.20 in 2.0 mi Calm Calm - N/A   Clear
9:18 PM 53.6 °F 51.8 °F 94% 30.21 in 6.0 mi NW 1.2 mph - N/A   Clear
9:33 PM 51.8 °F 51.8 °F 100% 30.21 in 5.0 mi Calm Calm - N/A   Clear
9:43 PM 51.8 °F 51.8 °F 100% 30.21 in 1.8 mi Calm Calm - N/A   Clear
9:48 PM 51.8 °F 51.8 °F 100% 30.21 in 1.2 mi Calm Calm - N/A   Clear
9:53 PM 51.8 °F 51.8 °F 100% 30.21 in 1.0 mi Calm Calm - N/A   Clear
9:58 PM 51.8 °F 50.0 °F 94% 30.22 in 1.2 mi Calm Calm - N/A   Partly Cloudy
10:03 PM 50.0 °F 50.0 °F 100% 30.21 in 2.5 mi Variable 1.2 mph - N/A   Scattered Clouds
10:08 PM 50.0 °F 50.0 °F 100% 30.21 in 3.0 mi SE 1.2 mph - N/A   Scattered Clouds
10:33 PM 50.0 °F 50.0 °F 100% 30.21 in 5.0 mi Calm Calm - N/A   Mostly Cloudy
10:58 PM 51.6 °F 51.4 °F 99% 30.23 in 8.0 mi Calm Calm - N/A   Overcast
11:58 PM 52.7 °F 52.5 °F 99% 30.22 in 7.0 mi Calm Calm - N/A   Overcast